Time,TemperatureF,DewpointF,PressureIn,WindDirection,WindDirectionDegrees,WindSpeedMPH,WindSpeedGustMPH,Humidity,HourlyPrecipIn,Conditions,Clouds,dailyrainin,SoftwareType,DateUTC
2013-03-21 00:03:00,26.0,21.0,29.70,South,175,0.0,0.0,80,0.00,,,0.28,,2013-03-21 04:03:00,
2013-03-21 00:13:00,26.0,21.0,29.70,South,175,0.0,0.0,80,0.00,,,0.28,,2013-03-21 04:13:00,
2013-03-21 00:23:00,26.0,21.0,29.70,South,175,0.0,2.0,80,0.00,,,0.28,,2013-03-21 04:23:00,
2013-03-21 00:33:00,26.0,20.0,29.70,South,175,0.0,0.0,79,0.00,,,0.28,,2013-03-21 04:33:00,
2013-03-21 00:43:00,26.0,20.0,29.70,South,175,0.0,0.0,79,0.00,,,0.28,,2013-03-21 04:43:00,
2013-03-21 00:53:00,25.0,20.0,29.70,South,175,0.0,0.0,81,0.00,,,0.28,,2013-03-21 04:53:00,
2013-03-21 01:03:00,24.0,19.0,29.70,South,175,1.0,2.0,82,0.00,,,0.28,,2013-03-21 05:03:00,
2013-03-21 01:12:00,24.0,19.0,29.70,South,175,1.0,2.0,82,0.00,,,0.28,,2013-03-21 05:12:00,
2013-03-21 01:22:00,24.0,20.0,29.69,South,175,0.0,0.0,83,0.00,,,0.28,,2013-03-21 05:22:00,
2013-03-21 01:33:00,23.0,19.0,29.70,South,187,0.0,3.0,85,0.00,,,0.28,,2013-03-21 05:33:00,
2013-03-21 01:44:00,23.0,19.0,29.70,South,187,0.0,3.0,85,0.00,,,0.28,,2013-03-21 05:44:00,
2013-03-21 01:52:00,23.0,19.0,29.70,South,187,0.0,0.0,86,0.00,,,0.28,,2013-03-21 05:52:00,
2013-03-21 02:03:00,23.0,20.0,29.70,South,187,0.0,2.0,87,0.00,,,0.28,,2013-03-21 06:03:00,
2013-03-21 02:12:00,23.0,20.0,29.70,South,187,0.0,2.0,87,0.00,,,0.28,,2013-03-21 06:12:00,
2013-03-21 02:22:00,22.0,18.0,29.70,South,187,0.0,0.0,86,0.00,,,0.28,,2013-03-21 06:22:00,
2013-03-21 02:32:00,22.0,18.0,29.70,South,187,0.0,2.0,86,0.00,,,0.28,,2013-03-21 06:32:00,
2013-03-21 02:42:00,22.0,18.0,29.70,South,187,0.0,2.0,86,0.00,,,0.28,,2013-03-21 06:42:00,
2013-03-21 02:52:00,22.0,19.0,29.70,South,187,0.0,2.0,87,0.00,,,0.28,,2013-03-21 06:52:00,
2013-03-21 03:02:00,22.0,19.0,29.70,South,187,0.0,2.0,87,0.00,,,0.28,,2013-03-21 07:02:00,
2013-03-21 03:13:00,22.0,19.0,29.70,South,187,0.0,2.0,87,0.00,,,0.28,,2013-03-21 07:13:00,
2013-03-21 03:22:00,23.0,20.0,29.70,SSW,195,0.0,2.0,87,0.00,,,0.28,,2013-03-21 07:22:00,
2013-03-21 03:32:00,23.0,19.0,29.70,South,169,0.0,2.0,84,0.00,,,0.28,,2013-03-21 07:32:00,
2013-03-21 03:43:00,23.0,19.0,29.70,South,169,0.0,2.0,84,0.00,,,0.28,,2013-03-21 07:43:00,
2013-03-21 03:53:00,22.0,18.0,29.69,South,169,0.0,1.0,84,0.00,,,0.28,,2013-03-21 07:53:00,
2013-03-21 04:02:00,23.0,19.0,29.69,South,171,0.0,2.0,84,0.00,,,0.28,,2013-03-21 08:02:00,
2013-03-21 04:13:00,23.0,19.0,29.69,South,171,0.0,2.0,84,0.00,,,0.28,,2013-03-21 08:13:00,
2013-03-21 04:23:00,22.0,18.0,29.69,South,171,0.0,1.0,83,0.00,,,0.28,,2013-03-21 08:23:00,
2013-03-21 04:33:00,21.0,17.0,29.68,South,171,0.0,0.0,86,0.00,,,0.28,,2013-03-21 08:33:00,
2013-03-21 04:42:00,21.0,17.0,29.68,South,171,0.0,0.0,86,0.00,,,0.28,,2013-03-21 08:42:00,
2013-03-21 04:52:00,21.0,17.0,29.68,South,171,0.0,1.0,86,0.00,,,0.28,,2013-03-21 08:52:00,
2013-03-21 05:02:00,20.0,17.0,29.68,South,171,0.0,0.0,87,0.00,,,0.28,,2013-03-21 09:02:00,
2013-03-21 05:11:00,20.0,17.0,29.68,South,171,0.0,0.0,87,0.00,,,0.28,,2013-03-21 09:11:00,
2013-03-21 05:22:00,20.0,17.0,29.68,South,171,0.0,0.0,88,0.00,,,0.28,,2013-03-21 09:22:00,
2013-03-21 05:33:00,20.0,17.0,29.67,South,171,0.0,0.0,89,0.00,,,0.28,,2013-03-21 09:33:00,
2013-03-21 05:43:00,20.0,17.0,29.67,South,171,0.0,0.0,89,0.00,,,0.28,,2013-03-21 09:43:00,
2013-03-21 05:53:00,20.0,17.0,29.68,South,171,0.0,0.0,89,0.00,,,0.28,,2013-03-21 09:53:00,
2013-03-21 06:03:00,19.0,16.0,29.67,South,171,0.0,0.0,89,0.00,,,0.28,,2013-03-21 10:03:00,
2013-03-21 06:12:00,19.0,16.0,29.67,South,171,0.0,0.0,89,0.00,,,0.28,,2013-03-21 10:12:00,
2013-03-21 06:23:00,19.0,16.0,29.67,South,171,0.0,0.0,88,0.00,,,0.28,,2013-03-21 10:23:00,
2013-03-21 06:34:00,19.0,16.0,29.67,South,171,0.0,0.0,89,0.00,,,0.28,,2013-03-21 10:34:00,
2013-03-21 06:42:00,19.0,16.0,29.67,South,171,0.0,0.0,89,0.00,,,0.28,,2013-03-21 10:42:00,
2013-03-21 06:53:00,18.0,16.0,29.68,South,171,0.0,0.0,90,0.00,,,0.28,,2013-03-21 10:53:00,
2013-03-21 07:03:00,18.0,16.0,29.68,South,171,0.0,0.0,91,0.00,,,0.28,,2013-03-21 11:03:00,
2013-03-21 07:13:00,18.0,16.0,29.68,South,171,0.0,0.0,91,0.00,,,0.28,,2013-03-21 11:13:00,
2013-03-21 07:23:00,18.0,16.0,29.68,South,171,0.0,0.0,91,0.00,,,0.28,,2013-03-21 11:23:00,
2013-03-21 07:33:00,18.0,16.0,29.68,South,171,0.0,0.0,91,0.00,,,0.28,,2013-03-21 11:33:00,
2013-03-21 07:43:00,18.0,16.0,29.68,South,171,0.0,0.0,91,0.00,,,0.28,,2013-03-21 11:43:00,
2013-03-21 07:53:00,19.0,17.0,29.69,South,171,0.0,0.0,92,0.00,,,0.28,,2013-03-21 11:53:00,
2013-03-21 08:03:00,19.0,17.0,29.70,South,171,0.0,0.0,92,0.00,,,0.28,,2013-03-21 12:03:00,
2013-03-21 08:12:00,19.0,17.0,29.70,South,171,0.0,0.0,92,0.00,,,0.28,,2013-03-21 12:12:00,
2013-03-21 08:22:00,20.0,18.0,29.69,South,171,0.0,0.0,92,0.00,,,0.28,,2013-03-21 12:22:00,
2013-03-21 08:33:00,20.0,18.0,29.69,South,171,0.0,0.0,92,0.00,,,0.28,,2013-03-21 12:33:00,
2013-03-21 08:43:00,20.0,18.0,29.69,South,171,0.0,0.0,92,0.00,,,0.28,,2013-03-21 12:43:00,
2013-03-21 08:53:00,23.0,21.0,29.68,South,171,0.0,2.0,90,0.00,,,0.28,,2013-03-21 12:53:00,
2013-03-21 09:03:00,24.0,21.0,29.68,South,171,0.0,0.0,88,0.00,,,0.28,,2013-03-21 13:03:00,
2013-03-21 09:12:00,24.0,21.0,29.68,South,171,0.0,0.0,88,0.00,,,0.28,,2013-03-21 13:12:00,
2013-03-21 09:22:00,26.0,21.0,29.68,SE,136,1.0,3.0,82,0.00,,,0.28,,2013-03-21 13:22:00,
2013-03-21 09:32:00,27.0,22.0,29.67,NNE,22,1.0,3.0,80,0.00,,,0.28,,2013-03-21 13:32:00,
2013-03-21 09:42:00,27.0,22.0,29.67,NNE,22,1.0,3.0,80,0.00,,,0.28,,2013-03-21 13:42:00,
2013-03-21 09:53:00,29.0,22.0,29.67,ENE,58,0.0,5.0,74,0.00,,,0.28,,2013-03-21 13:53:00,
2013-03-21 10:02:00,30.0,21.0,29.66,NNE,24,2.0,8.0,68,0.00,,,0.28,,2013-03-21 14:02:00,
2013-03-21 10:12:00,30.0,21.0,29.66,NNE,24,2.0,8.0,68,0.00,,,0.28,,2013-03-21 14:12:00,
2013-03-21 10:22:00,32.0,21.0,29.66,North,5,2.0,7.0,64,0.00,,,0.28,,2013-03-21 14:22:00,
2013-03-21 10:32:00,34.0,21.0,29.65,NNE,22,2.0,6.0,58,0.00,,,0.28,,2013-03-21 14:32:00,
2013-03-21 10:42:00,34.0,21.0,29.65,NNE,22,2.0,6.0,58,0.00,,,0.28,,2013-03-21 14:42:00,
2013-03-21 10:52:00,38.0,22.0,29.65,NNE,13,2.0,5.0,52,0.00,,,0.28,,2013-03-21 14:52:00,
2013-03-21 11:03:00,41.0,22.0,29.65,South,183,1.0,7.0,46,0.00,,,0.28,,2013-03-21 15:03:00,
2013-03-21 11:12:00,41.0,22.0,29.65,South,183,1.0,7.0,46,0.00,,,0.28,,2013-03-21 15:12:00,
2013-03-21 11:22:00,40.0,20.0,29.64,NE,54,2.0,6.0,44,0.01,,,0.27,,2013-03-21 15:22:00,
2013-03-21 11:33:00,38.0,19.0,29.64,North,355,2.0,5.0,46,0.01,,,0.27,,2013-03-21 15:33:00,
2013-03-21 11:42:00,38.0,19.0,29.64,North,355,2.0,5.0,46,0.01,,,0.27,,2013-03-21 15:42:00,
2013-03-21 11:53:00,38.0,19.0,29.64,North,355,2.0,5.0,46,0.01,,,0.27,,2013-03-21 15:53:00,
2013-03-21 12:03:00,40.0,19.0,29.63,SW,228,2.0,4.0,43,0.01,,,0.27,,2013-03-21 16:03:00,
2013-03-21 12:12:00,40.0,19.0,29.63,SW,228,2.0,4.0,43,0.01,,,0.27,,2013-03-21 16:12:00,
2013-03-21 12:23:00,39.0,20.0,29.63,NE,53,0.0,4.0,46,0.01,,,0.22,,2013-03-21 16:23:00,
2013-03-21 12:33:00,39.0,20.0,29.62,North,5,1.0,4.0,47,0.01,,,0.22,,2013-03-21 16:33:00,
2013-03-21 12:42:00,39.0,20.0,29.62,North,5,1.0,4.0,47,0.01,,,0.22,,2013-03-21 16:42:00,
2013-03-21 12:53:00,40.0,19.0,29.62,North,9,3.0,6.0,42,0.01,,,0.22,,2013-03-21 16:53:00,
2013-03-21 13:02:00,41.0,19.0,29.61,NE,37,3.0,6.0,40,0.01,,,0.22,,2013-03-21 17:02:00,
2013-03-21 13:12:00,41.0,19.0,29.61,NE,37,3.0,6.0,40,0.01,,,0.22,,2013-03-21 17:12:00,
2013-03-21 13:23:00,41.0,19.0,29.60,North,360,1.0,4.0,41,0.00,,,0.18,,2013-03-21 17:23:00,
2013-03-21 13:33:00,42.0,19.0,29.59,NW,306,1.0,4.0,39,0.00,,,0.18,,2013-03-21 17:33:00,
2013-03-21 13:43:00,42.0,19.0,29.59,NW,306,1.0,4.0,39,0.00,,,0.18,,2013-03-21 17:43:00,
2013-03-21 13:53:00,42.0,18.0,29.59,NNE,29,2.0,4.0,38,0.00,,,0.18,,2013-03-21 17:53:00,
2013-03-21 14:02:00,41.0,17.0,29.58,WSW,250,2.0,5.0,38,0.00,,,0.18,,2013-03-21 18:02:00,
2013-03-21 14:12:00,41.0,17.0,29.58,WSW,250,2.0,5.0,38,0.00,,,0.18,,2013-03-21 18:12:00,
2013-03-21 14:23:00,42.0,19.0,29.57,North,5,1.0,4.0,40,0.00,,,0.08,,2013-03-21 18:23:00,
2013-03-21 14:32:00,43.0,18.0,29.56,ESE,117,2.0,5.0,36,0.01,,,0.09,,2013-03-21 18:32:00,
2013-03-21 14:42:00,43.0,18.0,29.56,ESE,117,2.0,5.0,36,0.01,,,0.09,,2013-03-21 18:42:00,
2013-03-21 14:52:00,45.0,20.0,29.55,WSW,240,1.0,4.0,37,0.01,,,0.09,,2013-03-21 18:52:00,
2013-03-21 15:02:00,44.0,19.0,29.54,NE,41,3.0,6.0,36,0.01,,,0.09,,2013-03-21 19:02:00,
2013-03-21 15:12:00,44.0,19.0,29.54,NE,41,3.0,6.0,36,0.01,,,0.09,,2013-03-21 19:12:00,
2013-03-21 15:22:00,44.0,18.0,29.53,NNE,23,0.0,3.0,35,0.01,,,0.06,,2013-03-21 19:22:00,
2013-03-21 15:32:00,45.0,20.0,29.52,North,355,1.0,4.0,36,0.00,,,0.06,,2013-03-21 19:32:00,
2013-03-21 15:43:00,45.0,20.0,29.52,North,355,1.0,4.0,36,0.00,,,0.06,,2013-03-21 19:43:00,
2013-03-21 15:53:00,44.0,19.0,29.52,NNW,330,2.0,5.0,36,0.00,,,0.06,,2013-03-21 19:53:00,
2013-03-21 16:02:00,44.0,20.0,29.51,NW,323,1.0,4.0,38,0.00,,,0.06,,2013-03-21 20:02:00,
2013-03-21 16:13:00,44.0,20.0,29.51,NW,323,1.0,4.0,38,0.00,,,0.06,,2013-03-21 20:13:00,
2013-03-21 16:23:00,45.0,18.0,29.51,East,79,0.0,4.0,33,0.00,,,0.04,,2013-03-21 20:23:00,
2013-03-21 16:33:00,44.0,19.0,29.50,NNE,13,2.0,6.0,37,0.00,,,0.04,,2013-03-21 20:33:00,
2013-03-21 16:42:00,44.0,19.0,29.50,NNE,13,2.0,6.0,37,0.00,,,0.04,,2013-03-21 20:42:00,
2013-03-21 16:53:00,43.0,17.0,29.50,NNE,24,0.0,4.0,35,0.00,,,0.04,,2013-03-21 20:53:00,
2013-03-21 17:03:00,42.0,18.0,29.50,NE,56,1.0,4.0,37,0.00,,,0.04,,2013-03-21 21:03:00,
2013-03-21 17:12:00,42.0,18.0,29.50,NE,56,1.0,4.0,37,0.00,,,0.04,,2013-03-21 21:12:00,
2013-03-21 17:22:00,42.0,21.0,29.49,NNW,339,1.0,3.0,43,0.00,,,0.03,,2013-03-21 21:22:00,
2013-03-21 17:33:00,42.0,18.0,29.50,SW,230,1.0,3.0,38,0.00,,,0.03,,2013-03-21 21:33:00,
2013-03-21 17:43:00,42.0,18.0,29.50,SW,230,1.0,3.0,38,0.00,,,0.03,,2013-03-21 21:43:00,
2013-03-21 17:53:00,42.0,20.0,29.50,NW,311,0.0,2.0,41,0.00,,,0.03,,2013-03-21 21:53:00,
2013-03-21 18:03:00,41.0,22.0,29.50,NE,38,0.0,1.0,46,0.00,,,0.03,,2013-03-21 22:03:00,
2013-03-21 18:13:00,41.0,22.0,29.50,NE,38,0.0,1.0,46,0.00,,,0.03,,2013-03-21 22:13:00,
2013-03-21 18:23:00,40.0,20.0,29.50,SE,134,0.0,2.0,44,0.00,,,0.03,,2013-03-21 22:23:00,
2013-03-21 18:33:00,40.0,25.0,29.50,SE,134,0.0,0.0,54,0.00,,,0.03,,2013-03-21 22:33:00,
2013-03-21 18:42:00,40.0,25.0,29.50,SE,134,0.0,0.0,54,0.00,,,0.03,,2013-03-21 22:42:00,
2013-03-21 18:52:00,39.0,22.0,29.50,SE,134,0.0,0.0,50,0.00,,,0.03,,2013-03-21 22:52:00,
2013-03-21 19:02:00,38.0,24.0,29.50,SE,134,0.0,0.0,57,0.00,,,0.03,,2013-03-21 23:02:00,
2013-03-21 19:12:00,38.0,24.0,29.50,SE,134,0.0,0.0,57,0.00,,,0.03,,2013-03-21 23:12:00,
2013-03-21 19:22:00,37.0,23.0,29.51,SSE,161,1.0,4.0,57,0.00,,,0.03,,2013-03-21 23:22:00,
2013-03-21 19:33:00,36.0,24.0,29.50,ESE,123,1.0,5.0,62,0.00,,,0.03,,2013-03-21 23:33:00,
2013-03-21 19:43:00,36.0,24.0,29.50,ESE,123,1.0,5.0,62,0.00,,,0.03,,2013-03-21 23:43:00,
2013-03-21 19:52:00,35.0,25.0,29.51,South,188,1.0,6.0,67,0.00,,,0.03,,2013-03-21 23:52:00,
2013-03-21 20:03:00,34.0,25.0,29.51,SE,132,1.0,5.0,70,0.00,,,0.03,,2013-03-22 00:03:00,
2013-03-21 20:12:00,34.0,25.0,29.51,SE,132,1.0,5.0,70,0.00,,,0.03,,2013-03-22 00:12:00,
2013-03-21 20:22:00,34.0,26.0,29.52,SSE,155,0.0,3.0,72,0.00,,,0.03,,2013-03-22 00:22:00,
2013-03-21 20:32:00,34.0,26.0,29.52,SSE,155,0.0,3.0,72,0.00,,,0.03,,2013-03-22 00:32:00,
2013-03-21 20:42:00,34.0,26.0,29.52,SSE,155,0.0,3.0,72,0.00,,,0.03,,2013-03-22 00:42:00,
2013-03-21 20:52:00,33.0,26.0,29.52,SE,144,2.0,4.0,75,0.00,,,0.03,,2013-03-22 00:52:00,
2013-03-21 21:03:00,32.0,26.0,29.52,SSE,160,0.0,1.0,77,0.00,,,0.03,,2013-03-22 01:03:00,
2013-03-21 21:12:00,32.0,26.0,29.52,SSE,160,0.0,1.0,77,0.00,,,0.03,,2013-03-22 01:12:00,
2013-03-21 21:22:00,32.0,27.0,29.52,South,171,0.0,5.0,80,0.00,,,0.03,,2013-03-22 01:22:00,
2013-03-21 21:32:00,32.0,27.0,29.52,South,171,0.0,5.0,80,0.00,,,0.03,,2013-03-22 01:32:00,
2013-03-21 21:43:00,32.0,27.0,29.52,South,171,0.0,5.0,80,0.00,,,0.03,,2013-03-22 01:43:00,
2013-03-21 21:52:00,32.0,27.0,29.53,SSE,150,0.0,2.0,82,0.00,,,0.03,,2013-03-22 01:52:00,
2013-03-21 22:02:00,31.0,26.0,29.53,ENE,57,0.0,2.0,83,0.00,,,0.03,,2013-03-22 02:02:00,
2013-03-21 22:12:00,31.0,26.0,29.53,ENE,57,0.0,2.0,83,0.00,,,0.03,,2013-03-22 02:12:00,
2013-03-21 22:22:00,31.0,26.0,29.53,ENE,57,0.0,2.0,83,0.00,,,0.03,,2013-03-22 02:22:00,
2013-03-21 22:32:00,30.0,26.0,29.52,ENE,57,0.0,0.0,84,0.00,,,0.03,,2013-03-22 02:32:00,
2013-03-21 22:43:00,30.0,26.0,29.52,ENE,57,0.0,0.0,84,0.00,,,0.03,,2013-03-22 02:43:00,
2013-03-21 22:52:00,30.0,26.0,29.53,NE,49,0.0,2.0,85,0.00,,,0.03,,2013-03-22 02:52:00,
2013-03-21 23:02:00,30.0,26.0,29.52,NE,49,0.0,0.0,85,0.00,,,0.03,,2013-03-22 03:02:00,
2013-03-21 23:12:00,30.0,26.0,29.52,NE,49,0.0,0.0,85,0.00,,,0.03,,2013-03-22 03:12:00,
2013-03-21 23:22:00,29.0,25.0,29.52,NE,49,0.0,0.0,86,0.00,,,0.03,,2013-03-22 03:22:00,
2013-03-21 23:33:00,29.0,26.0,29.52,South,191,0.0,3.0,87,0.00,,,0.03,,2013-03-22 03:33:00,
2013-03-21 23:43:00,29.0,26.0,29.52,South,191,0.0,3.0,87,0.00,,,0.03,,2013-03-22 03:43:00,
2013-03-21 23:53:00,28.0,25.0,29.52,NNW,344,0.0,0.0,88,0.00,,,0.03,,2013-03-22 03:53:00,